When you browse on this site, cookies collect data to enhance your experience and personalize the content and advertising you see.
Visit our Privacy Policy to learn more. By continuing to use the site, you agree to this use of cookies and data.
  • In Hungary
  • List of Countries
  • For 7 days
  • Water Temperature
  • Satellite Maps
  • Weather Map
  • News
  • Weather Widgets
  • user-avatar
    Login

    Hourly Weather Klagenfurt

    Today, 18 November, Sunday

    Time Temperature Precipitation Wind Pressure Humidity
    00:00 -2°C° 0 mm 1 mps 695 mmHg 71%
    01:00 -2°C° 0 mm 1 mps 695 mmHg 71%
    02:00 -2°C° 0 mm 1 mps 694 mmHg 71%
    03:00 -2°C° 0 mm 1 mps 694 mmHg 70%
    04:00 -1°C° 0 mm 1 mps 694 mmHg 69%
    05:00 -1°C° 0 mm 1 mps 693 mmHg 70%
    06:00 -1°C° 0 mm 1 mps 693 mmHg 71%
    07:00 -3°C° 0 mm 2 mps 693 mmHg 71%
    08:00 -2°C° 0 mm 2 mps 693 mmHg 69%
    09:00 -1°C° 0 mm 2 mps 693 mmHg 66%
    10:00 +1°C° 0 mm 2 mps 693 mmHg 63%
    11:00 +2°C° 0 mm 2 mps 692 mmHg 61%
    12:00 +3°C° 0 mm 2 mps 692 mmHg 58%
    13:00 +3°C° 0 mm 2 mps 691 mmHg 56%
    14:00 +3°C° 0 mm 2 mps 691 mmHg 60%
    15:00 +2°C° 0 mm 2 mps 690 mmHg 63%
    16:00 +1°C° 0 mm 2 mps 689 mmHg 67%
    17:00 +1°C° 0 mm 1 mps 689 mmHg 72%
    18:00 0°C° 0 mm 1 mps 688 mmHg 78%
    19:00 -1°C° 0 mm 1 mps 688 mmHg 83%
    20:00 -1°C° 0.1 mm 1 mps 688 mmHg 83%
    21:00 -1°C° 0.1 mm 1 mps 687 mmHg 84%
    22:00 -1°C° 0.1 mm 1 mps 687 mmHg 85%
    23:00 -1°C° 0.1 mm 1 mps 687 mmHg 86%

    Tomorrow, 19 November, Monday

    Time Temperature Precipitation Wind Pressure Humidity
    00:00 -1°C° 0.1 mm 1 mps 686 mmHg 87%
    01:00 -1°C° 0.1 mm 1 mps 686 mmHg 88%
    02:00 -1°C° 0.1 mm 1 mps 686 mmHg 88%
    03:00 -1°C° 0.1 mm 1 mps 686 mmHg 88%
    04:00 -1°C° 0.1 mm 1 mps 685 mmHg 88%
    05:00 -1°C° 0.1 mm 1 mps 685 mmHg 88%
    06:00 -2°C° 0.1 mm 1 mps 685 mmHg 88%
    07:00 -2°C° 0.1 mm 1 mps 685 mmHg 88%
    08:00 -1°C° 0.1 mm 1 mps 685 mmHg 82%
    09:00 0°C° 0.1 mm 1 mps 686 mmHg 75%
    10:00 +1°C° 0.1 mm 1 mps 686 mmHg 69%
    11:00 +1°C° 0.1 mm 2 mps 686 mmHg 67%
    12:00 +1°C° 0.1 mm 2 mps 686 mmHg 65%
    13:00 +1°C° 0.1 mm 2 mps 685 mmHg 63%
    14:00 +1°C° 0.1 mm 2 mps 685 mmHg 68%
    15:00 -1°C° 0.1 mm 2 mps 685 mmHg 72%
    16:00 -1°C° 0.1 mm 2 mps 685 mmHg 76%
    17:00 -2°C° 0.1 mm 2 mps 685 mmHg 79%
    18:00 -2°C° 0.1 mm 2 mps 685 mmHg 83%
    19:00 -2°C° 0.1 mm 2 mps 685 mmHg 86%
    20:00 -2°C° 0.1 mm 2 mps 684 mmHg 86%
    21:00 -2°C° 0.1 mm 2 mps 684 mmHg 86%
    22:00 -2°C° 0.1 mm 2 mps 684 mmHg 86%
    23:00 -2°C° 0.8 mm 2 mps 683 mmHg 87%

    Day after tomorrow, 20 November, Tuesday

    Time Temperature Precipitation Wind Pressure Humidity
    00:00 -2°C° 0.8 mm 2 mps 683 mmHg 88%
    01:00 -2°C° 0.8 mm 3 mps 682 mmHg 89%
    02:00 -2°C° 1.7 mm 3 mps 682 mmHg 90%
    03:00 -2°C° 1.7 mm 3 mps 681 mmHg 90%
    04:00 -2°C° 1.7 mm 3 mps 681 mmHg 91%
    05:00 -2°C° 2.1 mm 3 mps 680 mmHg 92%
    06:00 -2°C° 2.1 mm 2 mps 680 mmHg 92%
    07:00 -2°C° 2.1 mm 2 mps 680 mmHg 93%
    08:00 -2°C° 2.3 mm 2 mps 680 mmHg 93%
    09:00 -2°C° 2.3 mm 2 mps 680 mmHg 93%
    10:00 -2°C° 2.3 mm 2 mps 681 mmHg 93%
    11:00 +1°C° 0.3 mm 1 mps 681 mmHg 92%
    12:00 +1°C° 0.3 mm 1 mps 681 mmHg 91%
    13:00 +2°C° 0.3 mm 1 mps 681 mmHg 90%
    14:00 +2°C° 0 mm 1 mps 681 mmHg 92%
    15:00 +2°C° 0 mm 1 mps 681 mmHg 93%
    16:00 +1°C° 0 mm 1 mps 681 mmHg 94%
    17:00 +1°C° 0 mm 1 mps 681 mmHg 94%
    18:00 0°C° 0 mm 1 mps 682 mmHg 94%
    19:00 -1°C° 0 mm 1 mps 682 mmHg 94%
    20:00 -1°C° 0 mm 1 mps 682 mmHg 94%
    21:00 -1°C° 0 mm 1 mps 683 mmHg 94%
    22:00 -1°C° 0 mm 1 mps 683 mmHg 93%
    23:00 -2°C° 0 mm 1 mps 683 mmHg 93%

    21 November, Wednesday

    Time Temperature Precipitation Wind Pressure Humidity
    00:00 -2°C° 0 mm 1 mps 683 mmHg 93%
    01:00 -2°C° 0 mm 1 mps 683 mmHg 92%
    02:00 -2°C° 0 mm 1 mps 683 mmHg 92%
    03:00 -2°C° 0 mm 1 mps 683 mmHg 91%
    04:00 -2°C° 0 mm 1 mps 683 mmHg 90%
    05:00 -2°C° 0 mm 1 mps 684 mmHg 90%
    06:00 -2°C° 0 mm 1 mps 684 mmHg 89%
    07:00 -2°C° 0 mm 1 mps 684 mmHg 88%
    08:00 0°C° 0 mm 1 mps 685 mmHg 88%
    09:00 +2°C° 0 mm 1 mps 685 mmHg 88%
    10:00 +4°C° 0 mm 1 mps 686 mmHg 87%
    11:00 +4°C° 0 mm 1 mps 686 mmHg 88%
    12:00 +5°C° 0 mm 1 mps 686 mmHg 89%
    13:00 +6°C° 0 mm 1 mps 686 mmHg 89%
    14:00 +5°C° 0 mm 1 mps 686 mmHg 92%
    15:00 +4°C° 0 mm 1 mps 686 mmHg 94%
    16:00 +3°C° 0 mm 1 mps 686 mmHg 96%
    17:00 +2°C° 0 mm 1 mps 686 mmHg 95%
    18:00 +2°C° 0 mm 1 mps 686 mmHg 95%
    19:00 +1°C° 0 mm 1 mps 687 mmHg 94%
    20:00 +2°C° 0 mm 1 mps 687 mmHg 94%
    21:00 +2°C° 0 mm 1 mps 687 mmHg 94%
    22:00 +2°C° 0 mm 1 mps 688 mmHg 93%
    23:00 +2°C° 0 mm 1 mps 688 mmHg 93%

    22 November, Thursday

    Time Temperature Precipitation Wind Pressure Humidity
    00:00 +2°C° 0 mm 1 mps 688 mmHg 94%
    01:00 +2°C° 0 mm 1 mps 688 mmHg 94%
    02:00 +2°C° 0 mm 1 mps 688 mmHg 94%
    03:00 +2°C° 0 mm 1 mps 688 mmHg 94%
    04:00 +1°C° 0 mm 0 mps 688 mmHg 94%
    05:00 +1°C° 0 mm 0 mps 688 mmHg 94%
    06:00 +1°C° 0 mm 0 mps 689 mmHg 94%
    07:00 +1°C° 0 mm 0 mps 689 mmHg 94%
    08:00 +2°C° 0 mm 0 mps 689 mmHg 94%
    09:00 +3°C° 0 mm 0 mps 690 mmHg 93%
    10:00 +4°C° 0 mm 0 mps 690 mmHg 93%
    11:00 +5°C° 0 mm 0 mps 690 mmHg 93%
    12:00 +5°C° 0 mm 0 mps 690 mmHg 93%
    13:00 +6°C° 0 mm 0 mps 690 mmHg 93%
    14:00 +5°C° 0 mm 0 mps 690 mmHg 94%
    15:00 +5°C° 0 mm 0 mps 690 mmHg 95%
    16:00 +4°C° 0 mm 0 mps 691 mmHg 97%
    17:00 +4°C° 0 mm 0 mps 691 mmHg 97%
    18:00 +3°C° 0 mm 0 mps 691 mmHg 97%
    19:00 +3°C° 0 mm 0 mps 692 mmHg 97%
    20:00 +3°C° 0 mm 0 mps 692 mmHg 97%
    21:00 +2°C° 0 mm 0 mps 692 mmHg 97%
    22:00 +2°C° 0 mm 0 mps 693 mmHg 97%
    23:00 +2°C° 0 mm 0 mps 693 mmHg 96%

    23 November, Friday

    Time Temperature Precipitation Wind Pressure Humidity
    00:00 +2°C° 0 mm 0 mps 693 mmHg 96%
    01:00 +2°C° 0 mm 0 mps 693 mmHg 96%
    02:00 +1°C° 0 mm 0 mps 693 mmHg 96%
    03:00 +1°C° 0 mm 0 mps 693 mmHg 95%
    04:00 +1°C° 0 mm 0 mps 693 mmHg 95%
    05:00 +1°C° 0 mm 0 mps 693 mmHg 95%
    06:00 +1°C° 0 mm 0 mps 694 mmHg 95%
    07:00 +1°C° 0 mm 0 mps 694 mmHg 94%
    08:00 +2°C° 0 mm 0 mps 694 mmHg 93%
    09:00 +3°C° 0 mm 0 mps 695 mmHg 93%
    10:00 +4°C° 0 mm 0 mps 695 mmHg 92%
    11:00 +5°C° 0 mm 0 mps 695 mmHg 91%
    12:00 +5°C° 0 mm 0 mps 695 mmHg 90%
    13:00 +7°C° 0 mm 1 mps 695 mmHg 89%
    14:00 +5°C° 0 mm 0 mps 694 mmHg 91%
    15:00 +5°C° 0 mm 0 mps 694 mmHg 93%
    16:00 +4°C° 0 mm 0 mps 694 mmHg 95%
    17:00 +3°C° 0 mm 0 mps 694 mmHg 95%
    18:00 +3°C° 0 mm 0 mps 694 mmHg 95%
    19:00 +2°C° 0 mm 0 mps 694 mmHg 95%
    20:00 +2°C° 0 mm 0 mps 694 mmHg 95%
    21:00 +2°C° 0 mm 0 mps 694 mmHg 94%
    22:00 +2°C° 0 mm 0 mps 693 mmHg 94%
    23:00 +2°C° 0.1 mm 0 mps 693 mmHg 94%
    Show more